{"data":{"norad_id":64225,"intl_designator":"2025-117Y","name":"STARLINK-34289","alt_names":[],"object_type":"PAYLOAD","status":"ACTIVE","operator":null,"country":"US","launch_date":"2025-05-31","launch_site_code":"AFWTR","launch_vehicle":null,"mission":null,"orbit_class":"UNKNOWN","rcs_meters":null,"size_class":null,"mass_kg":null,"dimensions":null,"purposes":["comms"],"wikipedia_slug":null,"has_3d_model":false,"image_url":null,"decayed_at":null,"tle_current":{"epoch":"2026-05-25T02:18:41.690304Z","epoch_age_seconds":62758,"freshness":"FRESH","line1":"1 64225U 25117Y   26145.09631586  .00016034  00000+0  55212-3 0  9992","line2":"2 64225  53.1593  44.7150 0000956  99.7790 260.3319 15.30211108 56253","mean_motion":15.30211108,"eccentricity":9.56e-5,"inclination_deg":53.1593,"raan_deg":44.715,"arg_perigee_deg":99.779,"mean_anomaly_deg":260.3319,"bstar":0.00055212,"rev_number":5625,"period_min":94.104662583589,"perigee_km":474.52672584705,"apogee_km":475.83708042133,"semimajor_km":6853.3189031342,"source":"CELESTRAK","updated_at":"2026-05-25T13:38:20.347912Z"}}}